Find Starlink 1912

NORAD ID: 47178 Int'l Des: 2020-088 Owner: SPXS Country: US Constellation: starlink operational
LEOCIRCULAR

Live Position

Loading 3D Globe...

About Starlink 1912

Description loading...

Upcoming Passes

Passes for default location (London). Set your location on the main map for personalized predictions.

Altitude History

Loading altitude history...

Two-Line Element Set

1 47178U 20088BJ 26125.65717313 .00074733 00000-0 68166-3 0 9998
2 47178 53.0486 3.1071 0003767 53.2074 306.9287 15.67231770301021
Epoch: May 5, 2026 • Age: 13 hours

Current Status

Altitude 368.2 km
Velocity 7.69 km/s
Sub-Earth Point 4.80°N, 118.53°W
Launch Date Nov 25, 2020
Age 5.4 years
Type internet

Technical Details

Classification Payload
Mass 260.00 kg
Dry Mass 248.00 kg
Total Mass 260.00 kg
Length 0.20 m
Diameter 2.80 m
Span 9.00 m
Shape Box + pan
Manufacturer SPXS
Bus Type Starlink
Phase Status In Orbit
Owner/State SPXS/US

Most Searched